Location: Newark
(45.2500°N, 7.5833°E)
Time: 20:51:51
(UTC+00:00)

A-11 Canister half - Pass Details

Date: 03 February 2020
Orbit: 1524 x 1684 km, 47.3° (Epoch: 22 February)

Event Time Altitude Azimuth Distance (km) Brightness Sun altitude
Rises 19:12:40 0° 287° (WNW) 4,692 12.7 -27.3°
Reaches altitude 10° 19:15:41 10° 287° (WNW) 3,720 11.9 -27.8°
Maximum altitude 19:25:07 83° 201° (SSW) 1,585 8.9 -29.4°
Enters shadow 19:27:41 55° 122° (ESE) 1,845 9.0 -29.9°
Drops below altitude 10° 19:34:51 10° 116° (ESE) 3,829 - -31.1°
Sets 19:37:59 0° 115° (ESE) 4,835 - -31.7°
